{"data":{"norad_id":39508,"epoch":"2026-05-25T02:23:15.613728Z","epoch_age_seconds":73233,"freshness":"FRESH","line1":"1 39508U 14006A   26145.09948627 -.00000089  00000+0  00000+0 0  9995","line2":"2 39508   0.0566  91.5649 0003981 326.2118 295.6577  1.00272036 45047","mean_motion":1.00272036,"eccentricity":0.0003981,"inclination_deg":0.0566,"raan_deg":91.5649,"arg_perigee_deg":326.2118,"mean_anomaly_deg":295.6577,"bstar":0,"rev_number":4504,"period_min":1436.0933092054,"perigee_km":35769.738845144,"apogee_km":35803.310348708,"semimajor_km":42164.661596926,"source":"CELESTRAK","updated_at":"2026-05-25T13:38:13.948374Z"}}